Home > Time Zones > World Clock > Weather > Chad > Sarh > Past weeks

Flag for Chad Weather past 2 weeks in Sarh, Chad

Now
79 °F

Clear.


Feels Like: 78 °F
Forecast: 80 / 103 °F
Wind: No wind

Location: Sarh Airport

Current Time: Mar 3, 2015 at 2:00:31 AM

Latest Report: Mar 3, 2015 at 1:00 AM


Visibility: 4 mi

Pressure: 29.83 "Hg

Humidity: 28%

Dew point: 43 °F

Location of SarhLocation

Historic Weather in Sarh — Graph

°F

Sarh temperature yesterday

Maximum temperature yesterday: 102 °F (at 2:00 PM)
Minimum temperature yesterday: 75 °F (at 2:00 AM)
Average temperature yesterday: 88 °F

Past Weeks' High & Low Weather Summary

 TemperatureHumidityPressure
High106 °F (Feb 23, 2:00 PM)69% (Feb 19, 2:00 AM)29.95 "Hg (Feb 19, 2:00 AM)
Low70 °F (Feb 16, 6:00 AM)6% (Feb 28, 12:00 PM)29.68 "Hg (Feb 19, 5:00 PM)
Average88 °F24%29.82 "Hg
* Reported Midnight between Feb 15 and Feb 16 — Midnight between Mar 2 and Mar 3, Sarh, Weather by CustomWeather, © 2015

Note: Actual official high and low records may vary slightly from our data, if they occured in-between our weather recording intervals... More about our weather records

Advertising

Sarh weather history for previous 24 hours

 ConditionsComfort  
Time TempWeatherWind HumidityBarometerVisibility
12:00 AM
Tue, Mar 3
81 °FClear.No wind28%29.83 "Hg4 mi
11:00 PM
Mon, Mar 2
82 °FClear.No wind30%29.86 "Hg4 mi
10:00 PM84 °FClear.No wind29%29.83 "Hg4 mi
9:00 PM84 °FClear.No wind35%29.80 "Hg4 mi
8:00 PM88 °FClear.No wind29%29.80 "Hg4 mi
7:00 PM90 °FClear.No wind27%29.77 "Hg4 mi
6:00 PM97 °FClear.No wind20%29.74 "Hg4 mi
5:00 PM100 °FClear.No wind13%29.77 "Hg4 mi
4:00 PM102 °FClear.5 mph9%29.74 "Hg4 mi
3:00 PM102 °FClear.7 mph11%29.74 "Hg4 mi
2:00 PM102 °FClear.9 mph9%29.77 "Hg4 mi
1:00 PM100 °FClear.5 mph10%29.83 "Hg4 mi
12:00 PM97 °FClear.12 mph12%29.86 "Hg4 mi
11:00 AM95 °FClear.9 mph11%29.86 "Hg4 mi
10:00 AM91 °FClear.9 mph11%29.89 "Hg4 mi
9:00 AM86 °FClear.9 mph11%29.86 "Hg4 mi
8:00 AM81 °FClear.9 mph21%29.83 "Hg4 mi
7:00 AM77 °FClear.5 mph21%29.86 "Hg4 mi
6:00 AM77 °FClear.No wind17%29.80 "Hg4 mi
5:00 AM77 °FClear.No wind21%29.80 "Hg4 mi
4:00 AM75 °FClear.No wind27%29.80 "Hg4 mi
3:00 AM75 °FClear.No wind29%29.80 "Hg4 mi
2:00 AM75 °FClear.No wind39%29.80 "Hg4 mi
Weather by CustomWeather, © 2015

See weather overviewHow to use our weather pages